Location: Kalisz
(51.7636°N, 18.0893°E)
Time: 07:53:25
(UTC+02:00)

ISS - Pass Details

Date: 24 March 2019
Orbit: 408 x 410 km, 51.6° (Epoch: 24 April)

Event Time Altitude Azimuth Distance (km) Brightness Sun altitude
Rises 21:04:23 0° 262° (W) 2,335 0.6 -25.8°
Reaches altitude 10° 21:06:28 10° 262° (W) 1,474 -0.5 -26.1°
Enters shadow 21:07:09 15° 262° (W) 1,198 -1.0 -26.1°
